Miscellaneous Local Product
Issued by NWS Hastings, NE

Home | Current Version | Previous Version | Graphics & Text | Print | Product List | Glossary On
Versions: 1 2 3 4 5 6 7 8 9 10 11 12 13 14 15 16 17 18 19 20 21 22 23 24 25 26 27 28 29 30 31 32 33 34 35 36 37 38 39 40 41 42 43 44 45 46 47 48 49 50
000
AXUS43 KGID 192202
MISGRI

GID CWA HOURLY WEATHER ROUNDUP
NATIONAL WEATHER SERVICE HASTINGS NE
500 PM CDT THU APR 19 2018

NOTE: "FAIR" INDICATES FEW OR NO CLOUDS BELOW 12,000 FEET WITH NO
SIGNIFICANT WEATHER AND/OR OBSTRUCTIONS TO VISIBILITY.

...SOUTH CENTRAL NEBRASKA...

CITY           SKY/WX    TMP DP  RH WIND       PRES   REMARKS
GRAND ISLAND   SUNNY     56  27  32 SE7       30.36F
KEARNEY        SUNNY     56  27  32 E12G18    30.34F
HASTINGS       SUNNY     56  27  32 SE12G17   30.34F
ORD            CLOUDY    54  21  27 SE10      30.34F
YORK             N/A     57  27  30 CALM      30.36F
AURORA         SUNNY     56  22  26 E7        30.35F
LEXINGTON      MOSUNNY   57  27  30 SE9G17    30.31F
HOLDREGE       SUNNY     56  29  35 SE12      30.32F
HEBRON         SUNNY     59  26  27 E7        30.36S

...NEBRASKA PANHANDLE...

CITY           SKY/WX    TMP DP  RH WIND       PRES   REMARKS
CHADRON        MOSUNNY   61  31  32 SE24G32   30.15F
ALLIANCE       MOSUNNY   57  31  37 SE28G36   30.16F
SCOTTSBLUFF    PTSUNNY   62  30  29 SE24G39   30.10F
SIDNEY         SUNNY     62  27  26 SE30G38   30.15F

...WESTERN AND NORTH CENTRAL NEBRASKA...

CITY           SKY/WX    TMP DP  RH WIND       PRES   REMARKS
VALENTINE      PTSUNNY   56  28  34 SE16      30.29F
AINSWORTH      CLOUDY    53  29  39 SE12      30.31F
ONEILL         PTSUNNY   52  22  31 E12       30.38F
BROKEN BOW     PTSUNNY   55  28  35 E15       30.31F
IMPERIAL       MOSUNNY   62  28  27 SE22G33   30.23F
NORTH PLATTE   MOSUNNY   59  29  31 SE16G25   30.27F
MCCOOK         MOSUNNY   59  27  29 SE15G23   30.27F

...EASTERN NEBRASKA...

CITY           SKY/WX    TMP DP  RH WIND       PRES   REMARKS
NORFOLK        SUNNY     54  23  30 SE5       30.37F
SO SIOUX CITY  SUNNY     54  33  45 E13       30.42F
TEKAMAH        SUNNY     56  31  38 NE6       30.41F
COLUMBUS       SUNNY     55  21  26 VRB3G16   30.39F
ALBION         SUNNY     55  24  30 E9        30.37F
OMAHA EPPLEY   MOSUNNY   58  27  30 VRB5      30.39F
OFFUTT AFB     SUNNY     58  28  32 VRB5      30.38F
MILLARD        SUNNY     58  29  33 SE6       30.40F
LINCOLN        SUNNY     59  25  27 VRB7      30.39F
NEBRASKA CITY  SUNNY     58  31  36 NE5       30.39F
BEATRICE       SUNNY     59  30  33 E10       30.37F
FALLS CITY     SUNNY     59  26  28 E7        30.38F

...NORTHERN KANSAS...

CITY           SKY/WX    TMP DP  RH WIND       PRES   REMARKS
GOODLAND       MOSUNNY   63  26  24 SE20G37   30.20F
HILL CITY        N/A     62  27  26 MISG      30.30F
NORTON         CLEAR     61  27  27 E8        30.30F
PHILLIPSBURG   SUNNY     61  23  23 E10       30.33F
SMITH CENTER   SUNNY     59  27  29 E12       30.34F
BELOIT         SUNNY     52  21  30 CALM      30.34F
HAYS           SUNNY     59  25  27 SE7G20    30.31F
RUSSELL        SUNNY     60  29  30 E14       30.31F
CONCORDIA      SUNNY     57  25  29 SE10      30.35F
SALINA         SUNNY     60  29  30 E14       30.35F
TOPEKA         SUNNY     60  31  33 NE7       30.37F



USA.gov is the U.S. government's official web portal to all federal, state and local government web resources and services.